| time (UTC) | temp F | wind direction | speed MPH | gust MPH | rain 1hr in | rain 24hr in | rain mn in | humidity % | barometer mb |
| 20260510060619 | 71 | 149 | 2.0 | 2.0 | 0.00 | 0.00 | 0.00 | ||
| 20260510060119 | 71 | 150 | 2.0 | 2.0 | 0.00 | 0.00 | 0.00 | ||
| 20260510055617 | 71 | 160 | 3.0 | 2.0 | 0.00 | 0.00 | 0.00 | ||
| 20260510055117 | 71 | 167 | 4.0 | 4.0 | 0.00 | 0.00 | 0.00 | ||
| 20260510054617 | 72 | 187 | 5.0 | 4.0 | 0.00 | 0.00 | 0.00 | ||
| 20260510054114 | 72 | 225 | 6.0 | 7.0 | 0.00 | 0.00 | 0.00 | ||
| 20260510053614 | 72 | 180 | 5.0 | 7.0 | 0.00 | 0.00 | 0.00 | ||
| 20260510053115 | 72 | 197 | 5.0 | 4.0 | 0.00 | 0.00 | 0.00 | ||
| 20260510052611 | 72 | 187 | 4.0 | 4.0 | 0.00 | 0.00 | 0.00 | ||
| 20260510052112 | 72 | 193 | 3.0 | 4.0 | 0.00 | 0.00 | 0.00 | ||
| 20260510051612 | 71 | 177 | 3.0 | 3.0 | 0.00 | 0.00 | 0.00 | ||
| 20260510051110 | 72 | 169 | 2.0 | 2.0 | 0.00 | 0.00 | 0.00 | ||
| 20260510050610 | 72 | 193 | 3.0 | 3.0 | 0.00 | 0.00 | 0.00 | ||
| 20260510045608 | 73 | 198 | 5.0 | 3.0 | 0.00 | 0.00 | 0.00 | ||
| 20260510045108 | 73 | 177 | 5.0 | 4.0 | 0.00 | 0.00 | 0.00 | ||
| 20260510044609 | 73 | 166 | 5.0 | 4.0 | 0.00 | 0.00 | 0.00 | ||
| 20260510044106 | 73 | 181 | 5.0 | 6.0 | 0.00 | 0.00 | 0.00 | ||
| 20260510043607 | 73 | 169 | 5.0 | 5.0 | 0.00 | 0.00 | 0.00 | ||
| 20260510043107 | 73 | 186 | 4.0 | 5.0 | 0.00 | 0.00 | 0.00 | ||
| 20260510042604 | 73 | 180 | 4.0 | 4.0 | 0.00 | 0.00 | 0.00 | ||
| 20260510042105 | 73 | 174 | 3.0 | 5.0 | 0.00 | 0.00 | 0.00 | ||
| 20260510041605 | 74 | 176 | 3.0 | 3.0 | 0.00 | 0.00 | 0.00 | ||
| 20260510041103 | 74 | 177 | 4.0 | 5.0 | 0.00 | 0.00 | 0.00 | ||
| 20260510040709 | 75 | 172 | 4.0 | 4.0 | 0.00 | 0.00 | 0.00 | ||
| 20260510040603 | 75 | 172 | 4.0 | 4.0 | 0.00 | 0.00 | 0.00 | ||
| 20260510040103 | 75 | 176 | 4.0 | 3.0 | 0.00 | 0.00 | 0.00 | ||
| 20260510035601 | 75 | 176 | 3.0 | 4.0 | 0.00 | 0.00 | 0.00 | ||
| 20260510035101 | 76 | 170 | 3.0 | 3.0 | 0.00 | 0.00 | 0.00 | ||
| 20260510034602 | 76 | 173 | 3.0 | 2.0 | 0.00 | 0.00 | 0.00 | ||
| 20260510034059 | 76 | 158 | 3.0 | 2.0 | 0.00 | 0.00 | 0.00 | ||
| 20260510033559 | 76 | 165 | 4.0 | 3.0 | 0.00 | 0.00 | 0.00 | ||
| 20260510033100 | 76 | 190 | 4.0 | 4.0 | 0.00 | 0.00 | 0.00 | ||
| 20260510032557 | 77 | 174 | 4.0 | 4.0 | 0.00 | 0.00 | 0.00 | ||
| 20260510032058 | 77 | 195 | 4.0 | 3.0 | 0.00 | 0.00 | 0.00 | ||
| 20260510031558 | 78 | 183 | 4.0 | 4.0 | 0.00 | 0.00 | 0.00 | ||
| 20260510031056 | 78 | 174 | 4.0 | 3.0 | 0.00 | 0.00 | 0.00 | ||
| 20260510030556 | 79 | 160 | 2.0 | 4.0 | 0.00 | 0.00 | 0.00 | ||
| 20260510030056 | 79 | 146 | 3.0 | 3.0 | 0.00 | 0.00 | 0.00 | ||
| 20260510025554 | 79 | 165 | 4.0 | 3.0 | 0.00 | 0.00 | 0.00 | ||
| 20260510025054 | 80 | 181 | 5.0 | 5.0 | 0.00 | 0.00 | 0.00 | ||
| 20260510024555 | 80 | 166 | 4.0 | 3.0 | 0.00 | 0.00 | 0.00 | ||
| 20260510024052 | 81 | 150 | 4.0 | 4.0 | 0.00 | 0.00 | 0.00 | ||
| 20260510023553 | 81 | 138 | 5.0 | 4.0 | 0.00 | 0.00 | 0.00 | ||
| 20260510023053 | 81 | 135 | 5.0 | 5.0 | 0.00 | 0.00 | 0.00 | ||
| 20260510022550 | 82 | 149 | 5.0 | 4.0 | 0.00 | 0.00 | 0.00 | ||
| 20260510022051 | 82 | 129 | 6.0 | 7.0 | 0.00 | 0.00 | 0.00 | ||
| 20260510021549 | 82 | 146 | 6.0 | 5.0 | 0.00 | 0.00 | 0.00 | ||
| 20260510021047 | 83 | 145 | 6.0 | 5.0 | 0.00 | 0.00 | 0.00 | ||
| 20260510020547 | 83 | 162 | 7.0 | 5.0 | 0.00 | 0.00 | 0.00 | ||
| 20260510020047 | 83 | 152 | 5.0 | 5.0 | 0.00 | 0.00 | 0.00 | ||
| 20260510015545 | 84 | 131 | 6.0 | 6.0 | 0.00 | 0.00 | 0.00 | ||
| 20260510015045 | 84 | 129 | 7.0 | 5.0 | 0.00 | 0.00 | 0.00 | ||
| 20260510014545 | 84 | 135 | 6.0 | 5.0 | 0.00 | 0.00 | 0.00 | ||
| 20260510014043 | 84 | 121 | 4.0 | 7.0 | 0.00 | 0.00 | 0.00 | ||
| 20260510013543 | 85 | 117 | 5.0 | 6.0 | 0.00 | 0.00 | 0.00 | ||
| 20260510013043 | 85 | 131 | 6.0 | 4.0 | 0.00 | 0.00 | 0.00 | ||
| 20260510012541 | 85 | 120 | 4.0 | 4.0 | 0.00 | 0.00 | 0.00 | ||
| 20260510012041 | 86 | 117 | 3.0 | 4.0 | 0.00 | 0.00 | 0.00 | ||
| 20260510011541 | 86 | 118 | 5.0 | 8.0 | 0.00 | 0.00 | 0.00 | ||
| 20260510011039 | 86 | 113 | 6.0 | 7.0 | 0.00 | 0.00 | 0.00 | ||
| 20260510010539 | 87 | 115 | 5.0 | 5.0 | 0.00 | 0.00 | 0.00 | ||
| 20260510010039 | 87 | 115 | 6.0 | 6.0 | 0.00 | 0.00 | 0.00 | ||
| 20260510005537 | 87 | 103 | 4.0 | 5.0 | 0.00 | 0.00 | 0.00 | ||
| 20260510005037 | 87 | 101 | 7.0 | 6.0 | 0.00 | 0.00 | 0.00 | ||
| 20260510004646 | 88 | 142 | 8.0 | 8.0 | 0.00 | 0.00 | 0.00 | ||
| 20260510004537 | 88 | 142 | 8.0 | 8.0 | 0.00 | 0.00 | 0.00 | ||
| 20260510004035 | 89 | 158 | 7.0 | 7.0 | 0.00 | 0.00 | 0.00 | ||
| 20260510003535 | 88 | 138 | 6.0 | 5.0 | 0.00 | 0.00 | 0.00 | ||
| 20260510003036 | 89 | 128 | 8.0 | 7.0 | 0.00 | 0.00 | 0.00 | ||
| 20260510002533 | 89 | 152 | 8.0 | 6.0 | 0.00 | 0.00 | 0.00 | ||
| 20260510002033 | 89 | 121 | 8.0 | 9.0 | 0.00 | 0.00 | 0.00 | ||
| 20260510001534 | 89 | 111 | 8.0 | 8.0 | 0.00 | 0.00 | 0.00 | ||
| 20260510001031 | 90 | 139 | 8.0 | 9.0 | 0.00 | 0.00 | 0.00 | ||
| 20260510000532 | 90 | 118 | 7.0 | 6.0 | 0.00 | 0.00 | 0.00 | ||
| 20260510000032 | 90 | 139 | 8.0 | 7.0 | 0.00 | 0.00 | 0.00 | ||
| 20260509235529 | 90 | 145 | 8.0 | 6.0 | 0.00 | 0.00 | 0.00 | ||
| 20260509234530 | 90 | 125 | 11.0 | 7.0 | 0.00 | 0.00 | 0.00 | ||
| 20260509234027 | 90 | 129 | 7.0 | 7.0 | 0.00 | 0.00 | 0.00 | ||
| 20260509233527 | 89 | 91 | 10.0 | 10.0 | 0.00 | 0.00 | 0.00 | ||
| 20260509233027 | 91 | 122 | 8.0 | 6.0 | 0.00 | 0.00 | 0.00 | ||
| 20260509232524 | 90 | 97 | 9.0 | 12.0 | 0.00 | 0.00 | 0.00 | ||
| 20260509232025 | 92 | 93 | 8.0 | 11.0 | 0.00 | 0.00 | 0.00 | ||
| 20260509231525 | 91 | 167 | 5.0 | 8.0 | 0.00 | 0.00 | 0.00 | ||
| 20260509230522 | 92 | 173 | 6.0 | 6.0 | 0.00 | 0.00 | 0.00 | ||
| 20260509230022 | 92 | 166 | 5.0 | 5.0 | 0.00 | 0.00 | 0.00 | ||
| 20260509225520 | 91 | 184 | 6.0 | 5.0 | 0.00 | 0.00 | 0.00 | ||
| 20260509225020 | 91 | 145 | 8.0 | 6.0 | 0.00 | 0.00 | 0.00 | ||
| 20260509224520 | 91 | 98 | 6.0 | 7.0 | 0.00 | 0.00 | 0.00 | ||
| 20260509224018 | 91 | 80 | 7.0 | 6.0 | 0.00 | 0.00 | 0.00 | ||
| 20260509223518 | 91 | 98 | 9.0 | 7.0 | 0.00 | 0.00 | 0.00 | ||
| 20260509223018 | 91 | 117 | 8.0 | 11.0 | 0.00 | 0.00 | 0.00 | ||
| 20260509222516 | 94 | 150 | 10.0 | 8.0 | 0.00 | 0.00 | 0.00 | ||
| 20260509222016 | 92 | 187 | 7.0 | 7.0 | 0.00 | 0.00 | 0.00 | ||
| 20260509221516 | 92 | 145 | 9.0 | 8.0 | 0.00 | 0.00 | 0.00 | ||
| 20260509221014 | 92 | 118 | 7.0 | 11.0 | 0.00 | 0.00 | 0.00 | ||
| 20260509220514 | 92 | 165 | 8.0 | 7.0 | 0.00 | 0.00 | 0.00 | ||
| 20260509220014 | 92 | 197 | 10.0 | 6.0 | 0.00 | 0.00 | 0.00 | ||
| 20260509215511 | 92 | 194 | 7.0 | 7.0 | 0.00 | 0.00 | 0.00 | ||
| 20260509215012 | 93 | 190 | 7.0 | 7.0 | 0.00 | 0.00 | 0.00 | ||
| 20260509214512 | 93 | 172 | 10.0 | 6.0 | 0.00 | 0.00 | 0.00 | ||
| 20260509214010 | 93 | 156 | 8.0 | 6.0 | 0.00 | 0.00 | 0.00 | ||
| 20260509213510 | 93 | 159 | 6.0 | 3.0 | 0.00 | 0.00 | 0.00 | ||
| 20260509213010 | 94 | 160 | 7.0 | 10.0 | 0.00 | 0.00 | 0.00 | ||
| 20260509212508 | 92 | 125 | 5.0 | 9.0 | 0.00 | 0.00 | 0.00 | ||
| 20260509212008 | 93 | 217 | 9.0 | 10.0 | 0.00 | 0.00 | 0.00 | ||
| 20260509211508 | 93 | 181 | 5.0 | 2.0 | 0.00 | 0.00 | 0.00 | ||
| 20260509211006 | 92 | 226 | 7.0 | 2.0 | 0.00 | 0.00 | 0.00 | ||
| 20260509210506 | 92 | 181 | 8.0 | 4.0 | 0.00 | 0.00 | 0.00 | ||
| 20260509210006 | 92 | 177 | 9.0 | 9.0 | 0.00 | 0.00 | 0.00 | ||
| 20260509205504 | 92 | 177 | 10.0 | 8.0 | 0.00 | 0.00 | 0.00 | ||
| 20260509205004 | 92 | 155 | 8.0 | 9.0 | 0.00 | 0.00 | 0.00 | ||
| 20260509204504 | 92 | 136 | 8.0 | 6.0 | 0.00 | 0.00 | 0.00 | ||
| 20260509204001 | 91 | 146 | 9.0 | 11.0 | 0.00 | 0.00 | 0.00 | ||
| 20260509203502 | 92 | 172 | 10.0 | 8.0 | 0.00 | 0.00 | 0.00 | ||
| 20260509203002 | 92 | 152 | 9.0 | 8.0 | 0.00 | 0.00 | 0.00 | ||
| 20260509202459 | 91 | 153 | 8.0 | 10.0 | 0.00 | 0.00 | 0.00 | ||
| 20260509201959 | 92 | 204 | 8.0 | 8.0 | 0.00 | 0.00 | 0.00 | ||
| 20260509201500 | 92 | 153 | 6.0 | 4.0 | 0.00 | 0.00 | 0.00 | ||
| 20260509200957 | 91 | 136 | 7.0 | 7.0 | 0.00 | 0.00 | 0.00 | ||
| 20260509200458 | 91 | 122 | 8.0 | 9.0 | 0.00 | 0.00 | 0.00 | ||
| 20260509195958 | 91 | 176 | 10.0 | 9.0 | 0.00 | 0.00 | 0.00 | ||
| 20260509195455 | 91 | 132 | 9.0 | 8.0 | 0.00 | 0.00 | 0.00 | ||
| 20260509194956 | 91 | 121 | 9.0 | 8.0 | 0.00 | 0.00 | 0.00 | ||
| 20260509194456 | 90 | 188 | 7.0 | 8.0 | 0.00 | 0.00 | 0.00 | ||
| 20260509193953 | 91 | 166 | 10.0 | 17.0 | 0.00 | 0.00 | 0.00 | ||
| 20260509193454 | 91 | 176 | 6.0 | 13.0 | 0.00 | 0.00 | 0.00 | ||
| 20260509192953 | 90 | 163 | 11.0 | 10.0 | 0.00 | 0.00 | 0.00 | ||
| 20260509192450 | 90 | 158 | 10.0 | 10.0 | 0.00 | 0.00 | 0.00 | ||
| 20260509191951 | 89 | 135 | 9.0 | 9.0 | 0.00 | 0.00 | 0.00 | ||
| 20260509191451 | 90 | 201 | 11.0 | 10.0 | 0.00 | 0.00 | 0.00 | ||
| 20260509190948 | 89 | 160 | 8.0 | 11.0 | 0.00 | 0.00 | 0.00 | ||
| 20260509190449 | 89 | 132 | 9.0 | 10.0 | 0.00 | 0.00 | 0.00 | ||
| 20260509185949 | 89 | 153 | 9.0 | 12.0 | 0.00 | 0.00 | 0.00 | ||
| 20260509185446 | 88 | 156 | 9.0 | 10.0 | 0.00 | 0.00 | 0.00 | ||
| 20260509184947 | 89 | 127 | 8.0 | 11.0 | 0.00 | 0.00 | 0.00 | ||
| 20260509184447 | 89 | 107 | 10.0 | 10.0 | 0.00 | 0.00 | 0.00 | ||
| 20260509183944 | 89 | 212 | 9.0 | 8.0 | 0.00 | 0.00 | 0.00 | ||
| 20260509183445 | 88 | 149 | 7.0 | 11.0 | 0.00 | 0.00 | 0.00 | ||
| 20260509182945 | 88 | 167 | 9.0 | 11.0 | 0.00 | 0.00 | 0.00 | ||
| 20260509182442 | 88 | 173 | 10.0 | 10.0 | 0.00 | 0.00 | 0.00 | ||
| 20260509181943 | 88 | 156 | 9.0 | 12.0 | 0.00 | 0.00 | 0.00 | ||
| 20260509181443 | 89 | 141 | 9.0 | 11.0 | 0.00 | 0.00 | 0.00 | ||
| 20260509180940 | 88 | 194 | 8.0 | 7.0 | 0.00 | 0.00 | 0.00 | ||
| 20260509180441 | 87 | 205 | 9.0 | 9.0 | 0.00 | 0.00 | 0.00 | ||
| 20260509175941 | 88 | 118 | 10.0 | 9.0 | 0.00 | 0.00 | 0.00 | ||
| 20260509175438 | 88 | 108 | 8.0 | 9.0 | 0.00 | 0.00 | 0.00 | ||
| 20260509174939 | 87 | 87 | 8.0 | 2.0 | 0.00 | 0.00 | 0.00 | ||
| 20260509174439 | 87 | 145 | 8.0 | 7.0 | 0.00 | 0.00 | 0.00 | ||
| 20260509173936 | 87 | 177 | 6.0 | 6.0 | 0.00 | 0.00 | 0.00 | ||
| 20260509173437 | 86 | 153 | 4.0 | 4.0 | 0.00 | 0.00 | 0.00 | ||
| 20260509172937 | 83 | 146 | 5.0 | 7.0 | 0.00 | 0.00 | 0.00 | ||
| 20260509172434 | 85 | 132 | 4.0 | 6.0 | 0.00 | 0.00 | 0.00 | ||
| 20260509172104 | 85 | 194 | 5.0 | 2.0 | 0.00 | 0.00 | 0.00 | ||
| 20260509171935 | 85 | 194 | 5.0 | 2.0 | 0.00 | 0.00 | 0.00 | ||
| 20260509171435 | 85 | 163 | 8.0 | 7.0 | 0.00 | 0.00 | 0.00 | ||
| 20260509170933 | 84 | 132 | 4.0 | 7.0 | 0.00 | 0.00 | 0.00 | ||
| 20260509170433 | 83 | 194 | 5.0 | 3.0 | 0.00 | 0.00 | 0.00 | ||
| 20260509165933 | 83 | 239 | 6.0 | 5.0 | 0.00 | 0.00 | 0.00 | ||
| 20260509165431 | 82 | 136 | 6.0 | 6.0 | 0.00 | 0.00 | 0.00 | ||
| 20260509164931 | 82 | 162 | 7.0 | 4.0 | 0.00 | 0.00 | 0.00 | ||
| 20260509164432 | 82 | 176 | 5.0 | 7.0 | 0.00 | 0.00 | 0.00 | ||
| 20260509163929 | 81 | 191 | 6.0 | 6.0 | 0.00 | 0.00 | 0.00 | ||
| 20260509163430 | 80 | 229 | 5.0 | 6.0 | 0.00 | 0.00 | 0.00 | ||
| 20260509162929 | 81 | 128 | 4.0 | 9.0 | 0.00 | 0.00 | 0.00 | ||
| 20260509162426 | 80 | 190 | 4.0 | 7.0 | 0.00 | 0.00 | 0.00 | ||
| 20260509161927 | 80 | 240 | 6.0 | 5.0 | 0.00 | 0.00 | 0.00 | ||
| 20260509161427 | 80 | 135 | 6.0 | 10.0 | 0.00 | 0.00 | 0.00 | ||
| 20260509160925 | 79 | 174 | 6.0 | 5.0 | 0.00 | 0.00 | 0.00 | ||
| 20260509160425 | 78 | 153 | 6.0 | 8.0 | 0.00 | 0.00 | 0.00 | ||
| 20260509155926 | 77 | 183 | 8.0 | 8.0 | 0.00 | 0.00 | 0.00 | ||
| 20260509155424 | 76 | 148 | 6.0 | 9.0 | 0.00 | 0.00 | 0.00 | ||
| 20260509154924 | 75 | 115 | 7.0 | 5.0 | 0.00 | 0.00 | 0.00 | ||
| 20260509154424 | 74 | 143 | 9.0 | 9.0 | 0.00 | 0.00 | 0.00 | ||
| 20260509153922 | 74 | 121 | 7.0 | 5.0 | 0.00 | 0.00 | 0.00 | ||
| 20260509153422 | 76 | 107 | 9.0 | 8.0 | 0.00 | 0.00 | 0.00 | ||
| 20260509152923 | 75 | 131 | 8.0 | 6.0 | 0.00 | 0.00 | 0.00 | ||
| 20260509152544 | 74 | 125 | 8.0 | 8.0 | 0.00 | 0.00 | 0.00 | ||
| 20260509152420 | 74 | 125 | 8.0 | 8.0 | 0.00 | 0.00 | 0.00 | ||
| 20260509151921 | 74 | 143 | 3.0 | 7.0 | 0.00 | 0.00 | 0.00 | ||
| 20260509151421 | 74 | 107 | 6.0 | 8.0 | 0.00 | 0.00 | 0.00 | ||
| 20260509150919 | 74 | 96 | 6.0 | 10.0 | 0.00 | 0.00 | 0.00 | ||
| 20260509150418 | 74 | 163 | 6.0 | 4.0 | 0.00 | 0.00 | 0.00 | ||
| 20260509145919 | 73 | 135 | 6.0 | 3.0 | 0.00 | 0.00 | 0.00 | ||
| 20260509145416 | 74 | 122 | 4.0 | 5.0 | 0.00 | 0.00 | 0.00 | ||
| 20260509144916 | 73 | 177 | 5.0 | 3.0 | 0.00 | 0.00 | 0.00 | ||
| 20260509144417 | 71 | 210 | 1.0 | 2.0 | 0.00 | 0.00 | 0.00 | ||
| 20260509143915 | 70 | 359 | 1.0 | 1.0 | 0.00 | 0.00 | 0.00 | ||
| 20260509143000 | 67 | 277 | 5.0 | 3.0 | 0.00 | 0.00 | 0.00 | ||
| 20260509142916 | 67 | 277 | 5.0 | 3.0 | 0.00 | 0.00 | 0.00 | ||
| 20260509142413 | 66 | 294 | 6.0 | 7.0 | 0.00 | 0.00 | 0.00 | ||
| 20260509141914 | 66 | 305 | 4.0 | 3.0 | 0.00 | 0.00 | 0.00 | ||
| 20260509141414 | 65 | 326 | 5.0 | 4.0 | 0.00 | 0.00 | 0.00 | ||
| 20260509140912 | 65 | 298 | 5.0 | 4.0 | 0.00 | 0.00 | 0.00 | ||
| 20260509140412 | 65 | 304 | 5.0 | 6.0 | 0.00 | 0.00 | 0.00 | ||
| 20260509135912 | 65 | 297 | 6.0 | 6.0 | 0.00 | 0.00 | 0.00 | ||
| 20260509135410 | 65 | 340 | 4.0 | 5.0 | 0.00 | 0.00 | 0.00 | ||
| 20260509134910 | 64 | 314 | 5.0 | 4.0 | 0.00 | 0.00 | 0.00 | ||
| 20260509134411 | 64 | 321 | 3.0 | 5.0 | 0.00 | 0.00 | 0.00 | ||
| 20260509133908 | 64 | 318 | 4.0 | 3.0 | 0.00 | 0.00 | 0.00 | ||
| 20260509133409 | 63 | 312 | 3.0 | 3.0 | 0.00 | 0.00 | 0.00 | ||
| 20260509132909 | 63 | 322 | 5.0 | 4.0 | 0.00 | 0.00 | 0.00 | ||
| 20260509132407 | 63 | 336 | 5.0 | 4.0 | 0.00 | 0.00 | 0.00 | ||
| 20260509131907 | 63 | 340 | 3.0 | 4.0 | 0.00 | 0.00 | 0.00 | ||
| 20260509131408 | 63 | 325 | 1.0 | 1.0 | 0.00 | 0.00 | 0.00 | ||
| 20260509130906 | 63 | 322 | 0.0 | 0.0 | 0.00 | 0.00 | 0.00 | ||
| 20260509130406 | 63 | 322 | 0.0 | 0.0 | 0.00 | 0.00 | 0.00 | ||
| 20260509125907 | 63 | 322 | 0.0 | 0.0 | 0.00 | 0.00 | 0.00 | ||
| 20260509125404 | 62 | 316 | 2.0 | 1.0 | 0.00 | 0.00 | 0.00 | ||
| 20260509124905 | 62 | 311 | 5.0 | 5.0 | 0.00 | 0.00 | 0.00 | ||
| 20260509124405 | 62 | 323 | 3.0 | 4.0 | 0.00 | 0.00 | 0.00 | ||
| 20260509123903 | 62 | 302 | 2.0 | 2.0 | 0.00 | 0.00 | 0.00 | ||
| 20260509123403 | 62 | 312 | 4.0 | 4.0 | 0.00 | 0.00 | 0.00 | ||
| 20260509122904 | 62 | 333 | 1.0 | 4.0 | 0.00 | 0.00 | 0.00 | ||
| 20260509122400 | 62 | 276 | 0.0 | 0.0 | 0.00 | 0.00 | 0.00 | ||
| 20260509121901 | 62 | 290 | 3.0 | 3.0 | 0.00 | 0.00 | 0.00 | ||
| 20260509121401 | 61 | 328 | 5.0 | 5.0 | 0.00 | 0.00 | 0.00 | ||
| 20260509120859 | 61 | 132 | 0.0 | 0.0 | 0.00 | 0.00 | 0.00 | ||
| 20260509120359 | 61 | 132 | 0.0 | 0.0 | 0.00 | 0.00 | 0.00 | ||
| 20260509115900 | 61 | 316 | 0.0 | 0.0 | 0.00 | 0.00 | 0.00 | ||
| 20260509115357 | 61 | 326 | 2.0 | 1.0 | 0.00 | 0.00 | 0.00 | ||
| 20260509114858 | 61 | 322 | 2.0 | 3.0 | 0.00 | 0.00 | 0.00 | ||
| 20260509114358 | 61 | 240 | 3.0 | 2.0 | 0.00 | 0.00 | 0.00 | ||
| 20260509113856 | 61 | 188 | 4.0 | 3.0 | 0.00 | 0.00 | 0.00 | ||
| 20260509113356 | 61 | 166 | 6.0 | 4.0 | 0.00 | 0.00 | 0.00 | ||
| 20260509112355 | 61 | 190 | 6.0 | 6.0 | 0.00 | 0.00 | 0.00 | ||
| 20260509111854 | 61 | 165 | 6.0 | 5.0 | 0.00 | 0.00 | 0.00 | ||
| 20260509111355 | 60 | 232 | 3.0 | 3.0 | 0.00 | 0.00 | 0.00 | ||
| 20260509110851 | 60 | 229 | 3.0 | 3.0 | 0.00 | 0.00 | 0.00 | ||
| 20260509110351 | 61 | 169 | 4.0 | 5.0 | 0.00 | 0.00 | 0.00 | ||
| 20260509105851 | 61 | 165 | 3.0 | 3.0 | 0.00 | 0.00 | 0.00 | ||
| 20260509105349 | 61 | 172 | 3.0 | 2.0 | 0.00 | 0.00 | 0.00 | ||
| 20260509104849 | 60 | 153 | 5.0 | 6.0 | 0.00 | 0.00 | 0.00 | ||
| 20260509104350 | 60 | 146 | 0.0 | 0.0 | 0.00 | 0.00 | 0.00 | ||
| 20260509103847 | 60 | 146 | 0.0 | 0.0 | 0.00 | 0.00 | 0.00 | ||
| 20260509103348 | 60 | 146 | 0.0 | 0.0 | 0.00 | 0.00 | 0.00 | ||
| 20260509102848 | 60 | 146 | 0.0 | 0.0 | 0.00 | 0.00 | 0.00 | ||
| 20260509102345 | 60 | 146 | 0.0 | 0.0 | 0.00 | 0.00 | 0.00 | ||
| 20260509101846 | 60 | 146 | 0.0 | 0.0 | 0.00 | 0.00 | 0.00 | ||
| 20260509101346 | 60 | 146 | 1.0 | 0.0 | 0.00 | 0.00 | 0.00 | ||
| 20260509100844 | 60 | 219 | 2.0 | 2.0 | 0.00 | 0.00 | 0.00 | ||
| 20260509100344 | 60 | 228 | 0.0 | 0.0 | 0.00 | 0.00 | 0.00 | ||
| 20260509095844 | 60 | 228 | 1.0 | 0.0 | 0.00 | 0.00 | 0.00 | ||
| 20260509095342 | 61 | 152 | 0.0 | 2.0 | 0.00 | 0.00 | 0.00 | ||
| 20260509094842 | 60 | 342 | 4.0 | 4.0 | 0.00 | 0.00 | 0.00 | ||
| 20260509094342 | 61 | 20 | 4.0 | 3.0 | 0.00 | 0.00 | 0.00 | ||
| 20260509093840 | 61 | 339 | 6.0 | 5.0 | 0.00 | 0.00 | 0.00 | ||
| 20260509093340 | 61 | 98 | 0.0 | 0.0 | 0.00 | 0.00 | 0.00 | ||
| 20260509092840 | 62 | 98 | 0.0 | 0.0 | 0.00 | 0.00 | 0.00 | ||
| 20260509092337 | 62 | 129 | 4.0 | 3.0 | 0.00 | 0.00 | 0.00 | ||
| 20260509091838 | 62 | 72 | 0.0 | 0.0 | 0.00 | 0.00 | 0.00 | ||
| 20260509091339 | 62 | 72 | 0.0 | 0.0 | 0.00 | 0.00 | 0.00 | ||
| 20260509090836 | 62 | 72 | 0.0 | 0.0 | 0.00 | 0.00 | 0.00 | ||
| 20260509090336 | 62 | 72 | 0.0 | 0.0 | 0.00 | 0.00 | 0.00 | ||
| 20260509085836 | 63 | 107 | 1.0 | 2.0 | 0.00 | 0.00 | 0.00 | ||
| 20260509085334 | 62 | 127 | 4.0 | 3.0 | 0.00 | 0.00 | 0.00 | ||
| 20260509084834 | 63 | 145 | 3.0 | 3.0 | 0.00 | 0.00 | 0.00 | ||
| 20260509084334 | 63 | 180 | 3.0 | 3.0 | 0.00 | 0.00 | 0.00 | ||
| 20260509083832 | 63 | 232 | 1.0 | 1.0 | 0.00 | 0.00 | 0.00 | ||
| 20260509083332 | 63 | 229 | 4.0 | 3.0 | 0.00 | 0.00 | 0.00 | ||
| 20260509082833 | 62 | 200 | 4.0 | 4.0 | 0.00 | 0.00 | 0.00 | ||
| 20260509082330 | 62 | 235 | 0.0 | 0.0 | 0.00 | 0.00 | 0.00 | ||
| 20260509081831 | 62 | 188 | 2.0 | 1.0 | 0.00 | 0.00 | 0.00 | ||
| 20260509081331 | 62 | 217 | 2.0 | 2.0 | 0.00 | 0.00 | 0.00 | ||
| 20260509080829 | 62 | 232 | 1.0 | 2.0 | 0.00 | 0.00 | 0.00 | ||
| 20260509080411 | 62 | 318 | 0.0 | 0.0 | 0.00 | 0.00 | 0.00 | ||
| 20260509080329 | 62 | 318 | 0.0 | 0.0 | 0.00 | 0.00 | 0.00 | ||
| 20260509075829 | 62 | 318 | 0.0 | 0.0 | 0.00 | 0.00 | 0.00 | ||
| 20260509075327 | 62 | 325 | 1.0 | 0.0 | 0.00 | 0.00 | 0.00 | ||
| 20260509074827 | 62 | 340 | 4.0 | 4.0 | 0.00 | 0.00 | 0.00 | ||
| 20260509074328 | 63 | 333 | 0.0 | 0.0 | 0.00 | 0.00 | 0.00 | ||
| 20260509073825 | 63 | 333 | 0.0 | 0.0 | 0.00 | 0.00 | 0.00 | ||
| 20260509073326 | 63 | 330 | 5.0 | 2.0 | 0.00 | 0.00 | 0.00 | ||
| 20260509072826 | 63 | 302 | 7.0 | 7.0 | 0.00 | 0.00 | 0.00 | ||
| 20260509072323 | 64 | 266 | 0.0 | 0.0 | 0.00 | 0.00 | 0.00 | ||
| 20260509071824 | 64 | 266 | 2.0 | 0.0 | 0.00 | 0.00 | 0.00 | ||
| 20260509071324 | 64 | 312 | 6.0 | 7.0 | 0.00 | 0.00 | 0.00 | ||
| 20260509070821 | 64 | 281 | 3.0 | 3.0 | 0.00 | 0.00 | 0.00 | ||
| 20260509065822 | 64 | 160 | 5.0 | 5.0 | 0.00 | 0.00 | 0.00 | ||
| 20260509065319 | 65 | 176 | 4.0 | 4.0 | 0.00 | 0.00 | 0.00 | ||
| 20260509064820 | 65 | 174 | 4.0 | 5.0 | 0.00 | 0.00 | 0.00 | ||
| 20260509064320 | 65 | 158 | 5.0 | 4.0 | 0.00 | 0.00 | 0.00 | ||
| 20260509063818 | 65 | 174 | 5.0 | 5.0 | 0.00 | 0.00 | 0.00 | ||
| 20260509063430 | 65 | 165 | 5.0 | 7.0 | 0.00 | 0.00 | 0.00 | ||
| 20260509063318 | 65 | 165 | 5.0 | 7.0 | 0.00 | 0.00 | 0.00 | ||
| 20260509062819 | 65 | 165 | 4.0 | 4.0 | 0.00 | 0.00 | 0.00 | ||
| 20260509062316 | 66 | 170 | 5.0 | 6.0 | 0.00 | 0.00 | 0.00 | ||
| 20260509061816 | 66 | 180 | 6.0 | 7.0 | 0.00 | 0.00 | 0.00 | ||
| 20260509061317 | 65 | 163 | 7.0 | 6.0 | 0.00 | 0.00 | 0.00 |